Council Bluffs, IA

4:59 AM CST on November 15, 2019 (GMT -0600)
Council Bluffs Municipal

Weather History for KCBF - October, 2019

Change the Weather History Date:

Monday, October 21, 2019

  Actual Average Record
Temperature  
Mean Temperature 48 °F -  
Max Temperature 55 °F 60 °F 82 °F (2003)
Min Temperature 41 °F 41 °F 30 °F (1997)
Degree Days  
Heating Degree Days 17    
Moisture  
Dew Point 44 °F    
Average Humidity 92    
Maximum Humidity 100    
Minimum Humidity 58    
Precipitation  
Precipitation 0.08 in - - ()
Sea Level Pressure  
Sea Level Pressure 29.47 in    
Wind  
Wind Speed 12 mph ()    
Max Wind Speed 28 mph    
Max Gust Speed 40 mph    
Visibility 9.5 miles    
Events Rain    
Averages and records for this station are not official NWS values.
T = Trace of Precipitation, MM = Missing Value Source: Averaged Metar Reports

Daily Weather History Graph

Daily Weather History Graph

Search for Another Location

Airport or City:

Astronomy

Oct. 21, 2019 Rise Set
Actual Time 7:41 AM CDT 6:33 PM CDT
Civil Twilight 7:13 AM CDT 7:01 PM CDT
Nautical Twilight 6:41 AM CDT 7:33 PM CDT
Astronomical Twilight 6:09 AM CDT 8:05 PM CDT
Moon No Moon Rise 3:02 PM CDT (10/21)
Length of Visible Light 11h 48m
Length of Day
10h 52m
Waning Gibbous, 48% of the Moon is Illuminated
Oct 21
Waning Gibbous
Oct 27
New
Nov 4
First Quarter
Nov 12
Full
Nov 19
Last Quarter

Hourly Weather History & Observations

Time (CDT) Temp. Windchill Dew Point Humidity Pressure Visibility Wind Dir Wind Speed Gust Speed Precip Events Conditions
12:15 AM 50.0 °F - 50.0 °F 100% 29.50 in 10.0 mi SE 8.1 mph - N/A   Partly Cloudy
12:35 AM 50.0 °F - 50.0 °F 100% 29.50 in 10.0 mi SSE 8.1 mph - N/A   Partly Cloudy
12:55 AM 51.8 °F - 51.8 °F 100% 29.49 in 10.0 mi SSE 8.1 mph - N/A   Clear
1:15 AM 51.8 °F - 51.8 °F 100% 29.47 in 10.0 mi SSE 10.4 mph - N/A   Clear
1:35 AM 51.8 °F - 51.8 °F 100% 29.45 in 10.0 mi SSE 9.2 mph - N/A   Clear
1:55 AM 50.0 °F - 50.0 °F 100% 29.44 in 10.0 mi South 8.1 mph - N/A   Clear
2:15 AM 51.8 °F - 51.8 °F 100% 29.44 in 10.0 mi South 10.4 mph - N/A   Clear
2:35 AM 50.0 °F - 50.0 °F 100% 29.43 in 10.0 mi South 9.2 mph - N/A   Clear
2:55 AM 50.0 °F - 50.0 °F 100% 29.41 in 10.0 mi South 6.9 mph - N/A   Partly Cloudy
3:15 AM 50.0 °F - 50.0 °F 100% 29.41 in 10.0 mi SSW 11.5 mph - N/A   Partly Cloudy
3:35 AM 48.2 °F - 44.6 °F 87% 29.40 in 10.0 mi SW 15.0 mph - N/A   Clear
3:55 AM 46.4 °F 42.4 °F 42.8 °F 87% 29.39 in 10.0 mi SW 8.1 mph - N/A   Clear
4:15 AM 46.4 °F 41.1 °F 42.8 °F 87% 29.40 in 10.0 mi SW 11.5 mph - N/A   Clear
4:35 AM 44.6 °F 39.2 °F 41.0 °F 87% 29.40 in 10.0 mi SW 10.4 mph 18.4 mph N/A   Clear
4:55 AM 44.6 °F 38.8 °F 41.0 °F 87% 29.40 in 10.0 mi SW 11.5 mph - N/A   Clear
5:15 AM 44.6 °F 38.1 °F 41.0 °F 87% 29.40 in 10.0 mi WSW 13.8 mph - N/A   Clear
5:35 AM 42.8 °F 36.6 °F 41.0 °F 93% 29.39 in 10.0 mi WSW 11.5 mph - N/A   Clear
5:55 AM 41.0 °F 34.7 °F 41.0 °F 100% 29.39 in 10.0 mi SW 10.4 mph - N/A   Clear
6:15 AM 41.0 °F 37.1 °F 39.2 °F 93% 29.37 in 10.0 mi SW 5.8 mph - N/A   Clear
6:35 AM 41.0 °F 34.7 °F 41.0 °F 100% 29.37 in 10.0 mi WSW 10.4 mph - N/A   Clear
6:55 AM 41.0 °F 33.9 °F 41.0 °F 100% 29.36 in 10.0 mi WSW 12.7 mph - N/A   Clear
7:15 AM 41.0 °F 35.2 °F 41.0 °F 100% 29.35 in 10.0 mi SW 9.2 mph - N/A   Clear
7:35 AM 41.0 °F 34.3 °F 41.0 °F 100% 29.35 in 10.0 mi SW 11.5 mph - N/A   Mostly Cloudy
7:55 AM 41.0 °F 35.2 °F 41.0 °F 100% 29.35 in 10.0 mi SW 9.2 mph 16.1 mph N/A   Overcast
8:15 AM 42.8 °F 36.2 °F 42.8 °F 100% 29.35 in 10.0 mi WSW 12.7 mph - N/A   Overcast
8:35 AM 42.8 °F 35.4 °F 42.8 °F 100% 29.35 in 10.0 mi WSW 15.0 mph - N/A   Overcast
8:55 AM 42.8 °F 36.2 °F 42.8 °F 100% 29.36 in 10.0 mi West 12.7 mph 21.9 mph N/A   Overcast
9:15 AM 42.8 °F 37.0 °F 42.8 °F 100% 29.36 in 10.0 mi West 10.4 mph 18.4 mph N/A   Overcast
9:35 AM 42.8 °F 35.8 °F 41.0 °F 93% 29.37 in 10.0 mi West 13.8 mph - N/A   Overcast
9:55 AM 42.8 °F 35.1 °F 41.0 °F 93% 29.37 in 10.0 mi West 16.1 mph - N/A   Overcast
10:15 AM 44.6 °F 38.8 °F 41.0 °F 87% 29.37 in 10.0 mi West 11.5 mph 19.6 mph N/A   Overcast
10:35 AM 44.6 °F 38.8 °F 42.8 °F 93% 29.37 in 10.0 mi West 11.5 mph - N/A   Overcast
10:55 AM 44.6 °F 38.4 °F 42.8 °F 93% 29.38 in 10.0 mi West 12.7 mph 18.4 mph N/A   Overcast
11:15 AM 44.6 °F 38.4 °F 42.8 °F 93% 29.38 in 10.0 mi West 12.7 mph - N/A   Overcast
11:35 AM 46.4 °F 40.7 °F 42.8 °F 87% 29.39 in 10.0 mi West 12.7 mph 18.4 mph N/A   Overcast
11:55 AM 46.4 °F 39.8 °F 44.6 °F 93% 29.39 in 10.0 mi West 16.1 mph - N/A   Overcast
12:15 PM 46.4 °F 40.4 °F 44.6 °F 93% 29.39 in 10.0 mi West 13.8 mph - N/A   Overcast
12:35 PM 46.4 °F 40.4 °F 44.6 °F 93% 29.39 in 10.0 mi West 13.8 mph 20.7 mph N/A   Overcast
12:55 PM 48.2 °F - 46.4 °F 93% 29.39 in 10.0 mi West 15.0 mph 20.7 mph N/A   Overcast
1:15 PM 50.0 °F - 46.4 °F 87% 29.40 in 10.0 mi West 15.0 mph 24.2 mph N/A   Overcast
1:35 PM 50.0 °F - 46.4 °F 87% 29.40 in 10.0 mi West 12.7 mph 19.6 mph N/A   Overcast
1:55 PM 51.8 °F - 48.2 °F 88% 29.39 in 10.0 mi West 12.7 mph 23.0 mph N/A   Overcast
2:35 PM 55.4 °F - 41.0 °F 58% 29.41 in 10.0 mi West 19.6 mph 31.1 mph N/A   Mostly Cloudy
2:55 PM 51.8 °F - 39.2 °F 62% 29.42 in 10.0 mi WNW 23.0 mph 33.4 mph 0.01 in   Mostly Cloudy
3:15 PM 51.8 °F - 41.0 °F 67% 29.44 in 10.0 mi West 18.4 mph 27.6 mph N/A   Mostly Cloudy
3:35 PM 50.0 °F - 42.8 °F 76% 29.45 in 10.0 mi West 21.9 mph 33.4 mph N/A   Mostly Cloudy
3:55 PM 50.0 °F - 46.4 °F 87% 29.45 in 10.0 mi West 19.6 mph 35.7 mph N/A   Overcast
4:15 PM 50.0 °F - 44.6 °F 82% 29.46 in 10.0 mi West 23.0 mph 36.8 mph N/A   Overcast
4:35 PM 50.0 °F - 44.6 °F 82% 29.47 in 10.0 mi West 18.4 mph 31.1 mph N/A   Overcast
4:55 PM 48.2 °F - 46.4 °F 93% 29.48 in 2.5 mi West 23.0 mph 31.1 mph N/A   Light Drizzle
5:15 PM 48.2 °F - 46.4 °F 93% 29.49 in 9.0 mi West 18.4 mph 29.9 mph N/A   Overcast
5:35 PM 48.2 °F - 46.4 °F 93% 29.50 in 6.0 mi WNW 23.0 mph 39.1 mph N/A   Light Drizzle
5:55 PM 46.4 °F 39.0 °F 46.4 °F 100% 29.53 in 2.5 mi WNW 19.6 mph 26.5 mph 0.04 in Rain Rain
6:15 PM 46.4 °F 39.2 °F 46.4 °F 100% 29.54 in 4.0 mi WNW 18.4 mph 31.1 mph N/A Rain Light Rain
6:35 PM 46.4 °F 39.8 °F 46.4 °F 100% 29.56 in 7.0 mi WNW 16.1 mph 25.3 mph N/A   Light Drizzle
6:55 PM 46.4 °F 39.2 °F 46.4 °F 100% 29.57 in 10.0 mi WNW 18.4 mph 28.8 mph 0.03 in   Overcast
7:15 PM 46.4 °F 39.5 °F 46.4 °F 100% 29.58 in 7.0 mi WNW 17.3 mph 28.8 mph N/A Rain Light Rain
7:35 PM 44.6 °F 37.2 °F 44.6 °F 100% 29.59 in 6.0 mi WNW 17.3 mph 27.6 mph N/A Rain Light Rain
7:55 PM 44.6 °F 36.6 °F 44.6 °F 100% 29.60 in 9.0 mi WNW 19.6 mph 27.6 mph N/A Rain Light Rain
8:15 PM 44.6 °F 35.9 °F 44.6 °F 100% 29.61 in 9.0 mi WNW 23.0 mph 31.1 mph N/A   Overcast
8:35 PM 46.4 °F 38.1 °F 44.6 °F 93% 29.62 in 10.0 mi WNW 24.2 mph 32.2 mph N/A   Overcast
8:55 PM 46.4 °F 37.9 °F 44.6 °F 93% 29.62 in 10.0 mi WNW 25.3 mph 40.3 mph N/A   Overcast
9:15 PM 46.4 °F 38.5 °F 44.6 °F 93% 29.63 in 10.0 mi WNW 21.9 mph 40.3 mph N/A   Overcast
9:35 PM 46.4 °F 38.7 °F 42.8 °F 87% 29.64 in 10.0 mi WNW 20.7 mph 36.8 mph N/A   Overcast
9:55 PM 46.4 °F 37.9 °F 42.8 °F 87% 29.65 in 10.0 mi WNW 25.3 mph 35.7 mph N/A   Overcast
10:15 PM 46.4 °F 38.5 °F 42.8 °F 87% 29.66 in 10.0 mi WNW 21.9 mph 33.4 mph N/A   Overcast
10:35 PM 46.4 °F 37.5 °F 42.8 °F 87% 29.67 in 10.0 mi WNW 27.6 mph 35.7 mph N/A   Overcast
10:55 PM 46.4 °F 39.0 °F 42.8 °F 87% 29.68 in 10.0 mi WNW 19.6 mph 34.5 mph N/A   Overcast
11:15 PM 46.4 °F 38.5 °F 42.8 °F 87% 29.68 in 10.0 mi WNW 21.9 mph 36.8 mph N/A   Overcast
11:35 PM 46.4 °F 38.3 °F 42.8 °F 87% 29.69 in 10.0 mi WNW 23.0 mph 35.7 mph N/A   Overcast
11:55 PM 46.4 °F 38.3 °F 42.8 °F 87% 29.70 in 10.0 mi WNW 23.0 mph 31.1 mph N/A   Overcast